COSMOS 2251 DEB, 33980

Orbit data source: Space-Track

COSMOS 2251 DEB, 33980 is space debris in LEO originally from a launch on Wed, 16 Jun 1993 UTC launched from the Plesetsk Missile And Space Complex (PKMTR). The debris from Iridium 33, an American commercial communications satellite, has been tracked extensively since its accidental collision with the defunct Russian satellite Cosmos 2251 in 2009. This event, occurring at high speed in low Earth orbit (LEO), generated thousands of pieces of space debris, significantly increasing the risk of further collisions. The Iridium 33 debris cloud has impacted space traffic management and orbital debris mitigation strategies, making it a subject of ongoing study in space situational awareness.

Loading next visibility...
Identifier
33980, 1993-036FP
Orbit
LEO
Country
Flag of CISCIS
Related business
Manufacturer
Unknown
Mission
Spacecraft
Bus & Motor
Unknown
Mass
Unknown
Launch date (UTC)
1993-06-16 (33 years ago)
Launch vehicle
Unknown
Launch site
Plesetsk Missile And Space Complex (PKMTR)
Object type
Payload
Rocket body
Debris
Shape & HBR
Unknown shape, 0.2 m
Radar Cross Section
Small (<0.1 m²)

Expand to show TLE details & history
Last TLE update: 6 hours ago

TLE from 6 hours ago
0 COSMOS 2251 DEB
1 33980U 93036FP  26129.99358225  .00001433  00000-0  30581-3 0  9998
2 33980  74.0173 136.6000 0030443 242.8393 145.5311 14.59575133909571
Epoch: 2026-05-09T23:50Z
TLE epoch observation values (Epoch: 2026-05-09T23:50:45.506Z)
Latitude
27.41511°
Longitude
-80.39526°
Altitude
715.385 km
Speed
7.491 km/s
True Right ascension
09h 40m 23s
True Declination
27° 16' 26"
Sunlit
Object was in daylight at epoch
Visualization orbit readout
Latitude
Unknown
Longitude
Unknown
Altitude
Unknown
Speed
Unknown
Apparent Right ascension
Unknown
Apparent Declination
Unknown
Sunlit
N/A
Visualization observer readout
Local Sidereal Time
13:48:07
Azimuth
Unknown
Elevation
Unknown
Doppler factor
Unknown
Orbital elements
Apogee altitude
713.67 km
Perigee altitude
670.622 km
Semi-major axis
7,070.283 km
Eccentricity
0.00304
Inclination
74.0173°
RAAN
136.6°
Arg. of periapsis
242.8393°
True anomaly
145.72792°
Mean anomaly
145.5311°
Eccentric anomaly
145.62957°
Mean motion
3.6508 °/min
Orbital period
98.61 mins
BSTAR
0.00030581

Documentation

Showing up to 5 results
|